Home > Weather > Makati > Past weeks

Flag for Philippines Weather for the Past 2 Weeks in Makati, Philippines

Now
90 °F

Passing clouds.


Feels Like: 92 °F
Forecast: 72 / 89 °F
Wind: 7 mph from North

Location: National Airport

Current Time: Feb 13, 2016 at 1:58:10 PM

Latest Report: Feb 13, 2016 at 1:00 PM


Visibility: N/A

Pressure: 29.92 "Hg

Humidity: 46%

Dew point: 66 °F

Location of MakatiLocation

Historic Weather in Makati — Graph

°F

Makati Temperature Yesterday

Maximum temperature yesterday: 88 °F (at 2:00 PM)
Minimum temperature yesterday: 77 °F (at 4:00 AM)
Average temperature yesterday: 82 °F

High & Low Weather Summary for the Past Weeks

 TemperatureHumidityPressure
High91 °F (Feb 2, 1:00 PM)100% (Feb 5, 6:00 AM)30.01 "Hg (Feb 5, 6:00 AM)
Low73 °F (Feb 8, 2:00 AM)41% (Feb 2, 2:00 PM)29.56 "Hg (Feb 2, 5:00 PM)
Average81 °F73%29.93 "Hg
* Reported Jan 29 1:00 PM — Feb 13 1:00 PM, Makati, Weather by CustomWeather, © 2016

Note: Actual official high and low records may vary slightly from our data, if they occured in-between our weather recording intervals... More about our weather records

Advertising

Makati Weather History for the Previous 24 Hours

 ConditionsComfort  
Time TempWeatherWind HumidityBarometerVisibility
1:00 PM
Sat, Feb 13
90 °FPassing clouds.7 mph46%29.92 "HgN/A
12:00 PM88 °FScattered clouds.7 mph52%29.95 "HgN/A
11:00 AM86 °FScattered clouds.7 mph55%29.98 "HgN/A
10:00 AM84 °FPassing clouds.7 mph51%30.01 "HgN/A
9:00 AM82 °FPassing clouds.7 mph55%30.01 "HgN/A
8:00 AM79 °FPassing clouds.7 mph70%29.98 "HgN/A
7:00 AM77 °FPassing clouds.7 mph74%29.98 "HgN/A
6:00 AM77 °FPassing clouds.6 mph69%29.95 "HgN/A
5:00 AM77 °FPassing clouds.7 mph69%29.92 "HgN/A
4:00 AM79 °FPassing clouds.9 mph65%29.89 "HgN/A
3:00 AM77 °FPassing clouds.7 mph74%29.92 "HgN/A
2:00 AM77 °FPassing clouds.9 mph74%29.92 "HgN/A
1:00 AM77 °FPassing clouds.9 mph74%29.92 "HgN/A
12:00 AM79 °FPassing clouds.8 mph70%29.95 "HgN/A
11:00 PM
Fri, Feb 12
79 °FPassing clouds.9 mph65%29.95 "HgN/A
10:00 PM79 °FPassing clouds.9 mph70%29.95 "HgN/A
9:00 PM79 °FPassing clouds.8 mph70%29.95 "HgN/A
8:00 PM81 °FPassing clouds.9 mph66%29.95 "HgN/A
7:00 PM81 °FPassing clouds.9 mph66%29.92 "HgN/A
6:00 PM82 °FPassing clouds.13 mph58%29.92 "HgN/A
5:00 PM84 °FPassing clouds.15 mph58%29.89 "HgN/A
4:00 PM88 °FPassing clouds.13 mph59%29.86 "HgN/A
3:00 PM88 °FPassing clouds.14 mph66%29.86 "HgN/A
2:00 PM88 °FPassing clouds.6 mph59%29.89 "HgN/A
1:00 PM86 °FScattered clouds.7 mph62%29.92 "HgN/A
Weather by CustomWeather, © 2016

See weather overviewHow to use our weather pages